#timestamp,LO_Frequency,Hit,StdDev 
1656741615.3,286047000.9,N
1656741635.2,286047000.4,N
1656741655.0,286047000.9,N
1656741655.9,286047000.9,N
1656741675.7,286046998.1,N
1656741695.6,286047000.8,N
1656741715.4,286047000.9,N
1656741735.3,286047001.2,N
1656741755.1,286047001.2,N
1656741756.0,286047001.2,N
1656741775.8,286047000.6,N
1656741795.7,286046998.2,N
1656741815.5,286046998.2,N
1656741835.3,286046998.3,N
1656741855.2,286046998.6,N
1656741875.0,286047000.9,N
1656741875.9,286047000.9,N
1656741895.8,286047000.3,N
1656741915.6,286047000.4,N
1656741935.4,286047000.9,N
1656741955.3,286046999.9,N
1656741975.1,286047000.4,N
1656741995.8,286047000.0,N
1656742015.7,286047000.9,N
1656742035.5,286047000.8,N
1656742055.4,286047000.4,N
1656742075.2,286046998.2,N
1656742095.0,286046999.2,N
1656742095.9,286046999.2,N
1656742115.8,286046998.6,N
1656742135.6,286046998.4,N
1656742155.4,286046999.6,N
1656742175.3,286046999.3,N
1656742195.1,286046998.3,N
1656742215.9,286046998.4,N
1656742235.7,286046999.0,N
1656742255.5,286046998.8,N
1656742275.4,286046998.8,N
1656742295.2,286047000.4,N
1656742315.1,286047001.0,N
1656742316.0,286047001.0,N
1656742335.8,286047001.0,N
1656742355.6,286047001.0,N
1656742375.5,286047001.1,N
1656742395.3,286046999.0,N
1656742415.1,286046998.5,N
1656742435.9,286046998.5,N
1656742455.7,286047000.8,N
1656742475.6,286047001.1,N
1656742495.4,286047001.0,N
1656742515.2,286046998.2,N
1656742535.1,286046998.6,N
1656742536.0,286046998.6,N
1656742555.8,286046998.5,N
1656742575.7,286046998.5,N
1656742595.5,286046998.5,N
1656742615.3,286047000.7,N
1656742635.2,286047000.6,N
1656742655.9,286046998.3,N
1656742675.7,286046998.7,N
1656742695.6,286046998.3,N
1656742715.4,286046998.9,N
1656742735.3,286046998.1,N
1656742755.1,286046998.2,N
1656742756.0,286046998.2,N
1656742775.8,286047000.9,N
1656742795.7,286047001.1,N
1656742815.5,286046998.5,N
1656742835.3,286047000.8,N
1656742855.2,286046998.4,N
1656742875.0,286047000.9,N
1656742875.9,286047000.9,N
1656742895.8,286047000.0,N
1656742915.6,286046998.3,N
1656742935.4,286047001.1,N
1656742955.3,286047000.9,N
1656742975.1,286047000.3,N
1656742995.9,286047000.1,N
1656743015.7,286046999.7,N
1656743035.5,286047002.4,N
1656743055.4,286047002.4,N
1656743075.2,286047002.2,N
1656743095.1,286047002.8,N
1656743096.0,286047002.8,N
1656743115.8,286047000.1,N
1656743135.6,286047000.1,N
1656743155.5,286046999.7,N
1656743175.3,286047002.3,N
1656743195.1,286047000.0,N
1656743215.9,286047002.2,N
1656743235.7,286047000.2,N
1656743255.6,286047002.8,N
1656743275.4,286047000.5,N
1656743295.2,286047000.0,N
1656743315.1,286047000.0,N
1656743316.0,286047000.0,N
1656743335.8,286046999.9,N
1656743355.7,286047002.4,N
1656743375.5,286047002.3,N
1656743395.3,286046999.7,N
1656743415.2,286046999.9,N
1656743435.9,286046999.7,N
1656743455.7,286046999.8,N
1656743475.6,286047002.7,N
1656743495.4,286047002.5,N
1656743515.2,286047000.1,N
1656743535.1,286047000.1,N
1656743536.0,286047000.1,N
1656743555.8,286047000.1,N
1656743575.7,286047002.3,N
1656743595.5,286046999.8,N
1656743615.3,286047000.1,N
1656743635.2,286047002.6,N
1656743655.0,286047001.8,N
1656743655.9,286047001.8,N
1656743675.8,286047001.9,N
1656743695.6,286047001.7,N
1656743715.4,286047002.0,N
1656743735.3,286047002.2,N
1656743755.1,286047002.2,N
1656743775.8,286047004.0,Y
1656743795.7,286047001.9,P
1656743815.5,286047000.1,N
1656743835.3,286047002.8,P
1656743855.2,286047000.4,N
1656743905.1,286047000.0,E
1656743915.9,286047002.7,N
1656743935.7,286046999.7,P
1656743955.5,286047001.9,N
1656743975.4,286047002.3,N
1656743995.2,286047001.1,N
1656744015.1,286046999.3,N
1656744016.0,286046999.3,N
1656744035.8,286047000.2,N
1656744055.6,286047002.5,N
1656744075.5,286047006.0,Y
1656744095.3,286047004.5,P
1656744115.2,286047007.9,P
1656744135.9,286047011.5,P
1656744155.7,286047015.2,Y
1656744175.6,286047007.7,P
1656744195.4,286047008.8,P
1656744215.3,286047008.5,P
1656744235.1,286047006.4,Y
1656744236.0,286047006.4,P
1656744255.8,286047002.6,P
1656744275.7,286047001.9,N
1656744295.5,286047004.1,N
1656744315.4,286047003.1,N
1656744335.2,286047003.1,N
1656744355.0,286047005.9,N
1656744355.9,286047005.9,N
1656744375.8,286047003.3,N
1656744395.6,286047003.4,N
1656744415.4,286047004.5,N
1656744435.3,286047007.8,Y
1656744455.1,286047005.9,P
1656744475.9,286047006.0,P
1656744495.7,286047004.8,P
1656744515.5,286047007.0,Y
1656744535.4,286047001.9,P
1656744555.2,286047005.3,P
1656744575.0,286047004.2,N
1656744576.0,286047004.2,Y
1656744595.8,286047000.7,P
1656744615.6,286046999.8,N
1656744635.5,286047000.7,N
1656744655.3,286046999.7,N
1656744675.1,286047000.0,N
1656744695.9,286047001.6,N
1656744715.7,286047004.2,N
1656744735.5,286047002.9,N
1656744755.4,286047003.2,N
1656744775.2,286047005.9,Y
1656744795.1,286047003.2,P
1656744796.0,286047003.2,P
1656744815.8,286047007.6,P
1656744835.6,286047006.8,Y
1656744855.5,286047003.4,P
1656744875.3,286047004.4,P
1656744895.1,286047003.6,P
1656744915.9,286047005.4,Y
1656744935.7,286047002.0,P
1656744955.6,286047003.3,P
1656745005.4,286047002.9,E
1656745015.4,286047003.7,N
1656745035.2,286047000.6,P
1656745055.0,286047001.2,N
1656745055.9,286047001.2,N
1656745075.8,286047002.0,N
1656745095.6,286047001.3,N
1656745115.4,286047003.8,Y
1656745135.3,286046998.2,P
1656745155.1,286046999.4,N
1656745175.9,286046998.8,N
1656745195.7,286047000.6,N
